Lyndonville, VT

3:45 AM EDT on June 24, 2017 (GMT -0400)
Lyndonville

Weather History for KCDA - January, 2014

Change the Weather History Date:

Sunday, January 12, 2014

  Actual Average (K1V4) Record (K1V4)
Temperature  
Mean Temperature 38 °F -  
Max Temperature 43 °F 21 °F 54 °F (1980)
Min Temperature 33 °F 5 °F -32 °F (1968)
Degree Days  
Heating Degree Days 27    
Moisture  
Dew Point 28 °F    
Average Humidity 73    
Maximum Humidity 91    
Minimum Humidity 61    
Precipitation  
Precipitation 0.00 in - - ()
Sea Level Pressure  
Sea Level Pressure 29.55 in    
Wind  
Wind Speed 9 mph (West)    
Max Wind Speed 18 mph    
Max Gust Speed 34 mph    
Visibility 9 miles    
Events Rain , Snow    
Averages and records for this station are not official NWS values.
T = Trace of Precipitation, MM = Missing Value Source: NWS Daily Summary

Daily Weather History Graph

Daily Weather History Graph

Search for Another Location

Airport or City:

Trip Planner

Search our weather history database for the weather conditions in past years. The results will help you decide how hot, cold, wet, or windy it might be!

Date:

Astronomy

Jan. 12, 2014 Rise Set
Actual Time 7:22 AM EST 4:30 PM EST
Civil Twilight 6:50 AM EST 5:03 PM EST
Nautical Twilight 6:13 AM EST 5:39 PM EST
Astronomical Twilight 5:38 AM EST 6:14 PM EST
Moon 1:57 PM EST (1/12) 4:17 AM EST (1/12)
Length of Visible Light 10h 12m
Length of Day
9h 07m
Waxing Gibbous, 89% of the Moon is Illuminated
Jan 12
Waxing Gibbous
Jan 15
Full
Jan 24
Last Quarter
Jan 30
New
Feb 6
First Quarter

Hourly Weather History & Observations

Time (EST) Temp. Windchill Dew Point Humidity Pressure Visibility Wind Dir Wind Speed Gust Speed Precip Events Conditions
12:15 AM 43.0 °F 36.8 °F 40.6 °F 91% 29.20 in 10.0 mi West 11.5 mph - N/A   Light Drizzle
12:35 AM 43.0 °F 38.2 °F 40.6 °F 91% 29.20 in 10.0 mi SW 8.1 mph - N/A   Light Drizzle
12:55 AM 43.0 °F 37.2 °F 40.5 °F 91% 29.20 in 10.0 mi SW 10.4 mph 18.4 mph N/A   Overcast
1:15 AM 43.3 °F 38.6 °F 40.5 °F 90% 29.21 in 10.0 mi SW 8.1 mph - N/A   Overcast
1:35 AM 43.7 °F 39.7 °F 39.0 °F 84% 29.22 in 10.0 mi SSW 6.9 mph - N/A   Overcast
1:55 AM 43.9 °F 37.9 °F 37.0 °F 77% 29.24 in 10.0 mi SW 11.5 mph 19.6 mph N/A   Overcast
2:15 AM 43.0 °F 39.5 °F 35.1 °F 74% 29.25 in 10.0 mi SSW 5.8 mph - N/A   Overcast
2:35 AM 42.1 °F 38.4 °F 34.0 °F 73% 29.26 in 10.0 mi SSW 5.8 mph - N/A   Mostly Cloudy
2:55 AM 41.5 °F 39.6 °F 33.6 °F 73% 29.27 in 10.0 mi SW 3.5 mph - N/A   Overcast
3:15 AM 41.7 °F 38.0 °F 33.1 °F 71% 29.28 in 10.0 mi West 5.8 mph - N/A   Overcast
3:35 AM 40.8 °F 36.2 °F 32.7 °F 73% 29.29 in 10.0 mi WSW 6.9 mph - N/A   Overcast
3:55 AM 40.5 °F 37.3 °F 32.2 °F 72% 29.29 in 10.0 mi SSW 4.6 mph - N/A   Overcast
4:15 AM 40.5 °F 35.1 °F 32.4 °F 73% 29.29 in 10.0 mi WSW 8.1 mph - N/A   Overcast
4:35 AM 39.6 °F 34.7 °F 32.2 °F 75% 29.29 in 10.0 mi WSW 6.9 mph - N/A   Overcast
4:55 AM 40.3 °F 34.4 °F 30.2 °F 67% 29.31 in 10.0 mi WSW 9.2 mph 17.3 mph N/A   Overcast
5:15 AM 39.9 °F 34.5 °F 29.8 °F 67% 29.31 in 10.0 mi WSW 8.1 mph 16.1 mph N/A   Overcast
5:35 AM 39.6 °F 34.0 °F 29.5 °F 67% 29.32 in 10.0 mi WSW 8.1 mph 18.4 mph N/A   Overcast
5:55 AM 39.2 °F 34.2 °F 29.3 °F 68% 29.33 in 10.0 mi West 6.9 mph 20.7 mph N/A   Overcast
6:15 AM 37.6 °F 30.5 °F 29.5 °F 73% 29.35 in 10.0 mi WNW 10.4 mph 17.3 mph N/A   Overcast
6:35 AM 37.8 °F 32.5 °F 28.6 °F 69% 29.36 in 10.0 mi West 6.9 mph - N/A   Overcast
6:55 AM 37.8 °F 29.8 °F 28.2 °F 68% 29.37 in 10.0 mi West 12.7 mph 19.6 mph N/A Rain Light Rain
7:15 AM 36.9 °F 33.1 °F 28.9 °F 73% 29.39 in 10.0 mi WSW 4.6 mph - N/A Rain Light Rain
7:35 AM 36.3 °F 30.8 °F 29.3 °F 76% 29.40 in 10.0 mi SW 6.9 mph - N/A Rain Light Rain
7:55 AM 35.4 °F 29.7 °F 29.7 °F 80% 29.42 in 7.0 mi WSW 6.9 mph - N/A Rain Light Rain
8:15 AM 35.1 °F 31.0 °F 30.2 °F 82% 29.43 in 10.0 mi SW 4.6 mph - N/A Rain Light Rain
8:35 AM 35.2 °F 30.3 °F 29.5 °F 80% 29.46 in 10.0 mi WSW 5.8 mph - N/A Rain Light Rain
8:55 AM 35.2 °F - 29.3 °F 79% 29.46 in 10.0 mi Calm Calm - N/A Rain Light Rain
9:15 AM 35.1 °F 25.9 °F 29.3 °F 80% 29.48 in 7.0 mi West 13.8 mph 18.4 mph N/A Snow Light Snow
9:35 AM 35.6 °F 30.7 °F 29.3 °F 78% 29.49 in 7.0 mi West 5.8 mph 16.1 mph N/A Snow Light Snow
9:55 AM 35.1 °F 25.9 °F 28.6 °F 77% 29.50 in 5.0 mi West 13.8 mph 26.5 mph N/A Snow Light Snow
10:15 AM 34.0 °F 25.5 °F 30.2 °F 86% 29.51 in 1.8 mi West 11.5 mph 21.9 mph N/A Snow Light Snow
10:35 AM 34.7 °F 28.1 °F 29.1 °F 80% 29.52 in 7.0 mi West 8.1 mph 18.4 mph N/A Rain Light Rain
10:55 AM 34.7 °F 28.8 °F 28.9 °F 79% 29.53 in 7.0 mi NW 6.9 mph 18.4 mph N/A Snow Light Snow
11:15 AM 35.1 °F 25.9 °F 27.7 °F 74% 29.53 in 10.0 mi West 13.8 mph 21.9 mph N/A Snow Light Snow
11:35 AM 35.1 °F 25.2 °F 28.4 °F 77% 29.52 in 7.0 mi West 16.1 mph 23.0 mph N/A Snow Light Snow
11:55 AM 35.4 °F 26.0 °F 28.0 °F 75% 29.53 in 7.0 mi West 15.0 mph 24.2 mph N/A Snow Light Snow
12:15 PM 35.1 °F 27.9 °F 28.4 °F 77% 29.54 in 7.0 mi WNW 9.2 mph - N/A Snow Light Snow
12:35 PM 35.1 °F 26.9 °F 28.9 °F 78% 29.54 in 4.0 mi West 11.5 mph - N/A Snow Light Snow
12:55 PM 35.1 °F 25.9 °F 29.1 °F 79% 29.54 in 4.0 mi West 13.8 mph 20.7 mph N/A Snow Light Snow
1:15 PM 34.7 °F 25.1 °F 29.7 °F 82% 29.55 in 4.0 mi West 15.0 mph 23.0 mph N/A Snow Light Snow
1:35 PM 35.1 °F 24.8 °F 29.3 °F 80% 29.56 in 10.0 mi West 17.3 mph 26.5 mph N/A   Overcast
1:55 PM 35.2 °F 27.6 °F 28.8 °F 77% 29.56 in 10.0 mi West 10.4 mph 20.7 mph N/A   Overcast
2:15 PM 35.6 °F 26.6 °F 28.4 °F 75% 29.58 in 10.0 mi West 13.8 mph 19.6 mph N/A   Overcast
2:35 PM 35.8 °F 30.1 °F 28.2 °F 74% 29.60 in 10.0 mi West 6.9 mph 19.6 mph N/A   Overcast
2:55 PM 36.0 °F 29.0 °F 27.5 °F 71% 29.61 in 10.0 mi West 9.2 mph 16.1 mph N/A   Overcast
3:15 PM 35.2 °F 28.8 °F 27.3 °F 73% 29.63 in 10.0 mi West 8.1 mph - N/A   Overcast
3:35 PM 35.2 °F 28.1 °F 26.8 °F 71% 29.64 in 10.0 mi West 9.2 mph - N/A Snow Light Snow
3:55 PM 35.6 °F 25.9 °F 26.1 °F 68% 29.65 in 10.0 mi West 16.1 mph 24.2 mph N/A   Overcast
4:15 PM 35.6 °F 27.1 °F 25.3 °F 66% 29.66 in 10.0 mi West 12.7 mph 28.8 mph N/A   Overcast
4:35 PM 35.4 °F 24.9 °F 23.5 °F 62% 29.68 in 10.0 mi West 18.4 mph 34.5 mph N/A   Overcast
4:55 PM 35.1 °F 26.4 °F 23.5 °F 63% 29.70 in 10.0 mi West 12.7 mph 19.6 mph N/A   Overcast
5:15 PM 35.1 °F 27.4 °F 23.7 °F 63% 29.73 in 10.0 mi West 10.4 mph 18.4 mph N/A   Overcast
5:35 PM 34.5 °F 26.7 °F 23.7 °F 65% 29.74 in 10.0 mi WSW 10.4 mph 16.1 mph N/A   Overcast
5:55 PM 34.2 °F 27.5 °F 24.1 °F 67% 29.76 in 10.0 mi West 8.1 mph - N/A   Overcast
6:15 PM 34.0 °F 26.6 °F 24.4 °F 68% 29.77 in 10.0 mi West 9.2 mph - N/A   Overcast
6:35 PM 34.0 °F 24.2 °F 23.9 °F 67% 29.77 in 10.0 mi West 15.0 mph 23.0 mph N/A   Overcast
6:55 PM 33.6 °F 24.1 °F 24.4 °F 69% 29.78 in 10.0 mi West 13.8 mph 19.6 mph N/A   Overcast
7:15 PM 33.4 °F 24.3 °F 24.4 °F 70% 29.79 in 10.0 mi West 12.7 mph - N/A   Overcast
7:35 PM 33.4 °F 24.3 °F 23.2 °F 66% 29.80 in 10.0 mi West 12.7 mph 24.2 mph N/A   Overcast
7:55 PM 33.4 °F 23.1 °F 22.3 °F 64% 29.81 in 10.0 mi West 16.1 mph 25.3 mph N/A   Overcast
8:15 PM 33.3 °F 23.7 °F 21.9 °F 63% 29.83 in 10.0 mi West 13.8 mph 21.9 mph N/A   Overcast
8:35 PM 33.4 °F 23.9 °F 21.4 °F 61% 29.83 in 10.0 mi West 13.8 mph 19.6 mph N/A   Overcast
8:55 PM 33.4 °F 25.4 °F 21.6 °F 62% 29.84 in 10.0 mi West 10.4 mph 21.9 mph N/A   Overcast
9:15 PM 33.3 °F 25.7 °F 21.9 °F 63% 29.84 in 10.0 mi West 9.2 mph 17.3 mph N/A   Overcast
9:35 PM 33.3 °F 25.1 °F 22.1 °F 64% 29.85 in 10.0 mi WNW 10.4 mph - N/A   Overcast
9:55 PM 33.3 °F 27.1 °F 22.3 °F 64% 29.85 in 10.0 mi West 6.9 mph - N/A   Overcast
10:15 PM 33.3 °F 23.7 °F 22.8 °F 66% 29.86 in 10.0 mi West 13.8 mph 19.6 mph N/A   Overcast
10:35 PM 33.3 °F 25.1 °F 23.2 °F 67% 29.87 in 10.0 mi West 10.4 mph 19.6 mph N/A   Overcast
10:55 PM 33.3 °F 26.4 °F 23.4 °F 67% 29.87 in 10.0 mi West 8.1 mph - N/A   Overcast
11:15 PM 33.3 °F 27.1 °F 23.5 °F 68% 29.89 in 10.0 mi West 6.9 mph - N/A   Overcast
11:35 PM 33.3 °F 27.1 °F 23.0 °F 66% 29.87 in 10.0 mi WNW 6.9 mph - N/A   Overcast
11:55 PM 33.3 °F 26.4 °F 23.0 °F 66% 29.88 in 10.0 mi West 8.1 mph - N/A   Overcast